Location: Eekst
(53.0191°N, 6.7366°E)
Time: 13:31:56
(UTC+00:00)

SL-16 R/B - Pass Details

Date: 15 May 2026
Orbit: 841 x 844 km, 71.0° (Epoch: 10 June)

Event Time Altitude Azimuth Distance (km) Brightness Sun altitude
Rises 21:03:36 0° 325° (NW) 3,416 7.6 -11.4°
Reaches altitude 10° 21:06:11 10° 318° (NW) 2,477 6.2 -11.6°
Maximum altitude 21:11:25 39° 251° (WSW) 1,240 3.2 -12.0°
Enters shadow 21:16:34 10° 184° (S) 2,444 4.1 -12.4°
